Flag for United Kingdom Weather past 2 weeks in Newport, Wales, United Kingdom

Now
45 °F

Passing clouds.


Feels Like: 37 °F
Forecast: 44 / 51 °F
Wind: 17 mph from South

Location: Bristol / Lulsgate

Current Time: Feb 28, 2015 at 5:49:49 AM

Latest Report: Feb 28, 2015 at 5:20 AM


Visibility: N/A

Pressure: 29.80 "Hg

Humidity: 93%

Dew point: 43 °F

Location of NewportLocation

Historic Weather in Newport — Graph

°F

Newport temperature yesterday

Maximum temperature yesterday: 45 °F (at 1:20 PM)
Minimum temperature yesterday: 34 °F (at 12:50 AM)
Average temperature yesterday: 39 °F

Past Weeks' High & Low Weather Summary

 TemperatureHumidityPressure
High52 °F (Feb 25, 1:20 PM)100% (Feb 13, 6:50 PM)30.74 "Hg (Feb 13, 6:50 PM)
Low32 °F (Feb 17, 6:20 AM)61% (Feb 26, 4:20 PM)29.24 "Hg (Feb 23, 12:50 PM)
Average41 °F87%29.87 "Hg
* Reported Feb 13 4:20 AM — Feb 28 4:50 AM, Newport, Weather by CustomWeather, © 2015

Note: Actual official high and low records may vary slightly from our data, if they occured in-between our weather recording intervals... More about our weather records

Advertising

Newport weather history for previous 24 hours

 ConditionsComfort  
Time TempWeatherWind HumidityBarometerVisibility
4:50 AM
Sat, Feb 28
45 °FPassing clouds.17 mph93%29.83 "HgN/A
4:20 AM45 °FPassing clouds.15 mph93%29.83 "Hg6 mi
3:20 AM45 °FPassing clouds.16 mph93%29.86 "HgN/A
2:50 AM45 °FLow clouds.16 mph87%29.86 "HgN/A
2:20 AM43 °FLow clouds.16 mph93%29.89 "HgN/A
1:50 AM43 °FLow clouds.13 mph93%29.92 "HgN/A
1:20 AM43 °FPassing clouds.15 mph87%29.92 "HgN/A
12:50 AM43 °FPassing clouds.12 mph87%29.92 "HgN/A
12:20 AM43 °FPassing clouds.12 mph87%29.95 "HgN/A
11:50 PM
Fri, Feb 27
41 °FPassing clouds.10 mph93%29.95 "HgN/A
11:20 PM41 °FPassing clouds.12 mph87%29.98 "HgN/A
10:50 PM39 °FClear.9 mph87%29.98 "Hg10 mi
10:20 PM41 °FClear.13 mph81%30.01 "Hg10 mi
9:50 PM41 °FClear.13 mph81%30.01 "Hg10 mi
9:20 PM41 °FPassing clouds.12 mph81%30.04 "HgN/A
8:50 PM41 °FClear.12 mph81%30.04 "Hg10 mi
8:20 PM41 °FClear.10 mph81%30.04 "Hg10 mi
7:50 PM41 °FClear.8 mph76%30.07 "Hg10 mi
7:20 PM41 °FClear.5 mph76%30.07 "Hg10 mi
6:50 PM41 °FPassing clouds.7 mph76%30.07 "HgN/A
6:20 PM41 °FPartly cloudy.3 mph76%30.09 "HgN/A
5:50 PM41 °FPassing clouds.3 mph76%30.09 "HgN/A
5:20 PM41 °FPassing clouds.6 mph70%30.09 "HgN/A
4:50 PM43 °FPassing clouds.8 mph66%30.09 "HgN/A
4:20 PM45 °FScattered clouds.10 mph66%30.09 "HgN/A
3:50 PM43 °FScattered clouds.10 mph76%30.09 "HgN/A
3:20 PM43 °FScattered clouds.14 mph76%30.09 "HgN/A
2:50 PM45 °FScattered clouds.16 mph66%30.09 "HgN/A
2:20 PM45 °FScattered clouds.18 mph66%30.12 "HgN/A
1:50 PM45 °FPassing clouds.17 mph61%30.12 "HgN/A
1:20 PM45 °FPassing clouds.17 mph61%30.12 "HgN/A
12:50 PM43 °FScattered clouds.17 mph71%30.12 "HgN/A
12:20 PM43 °FScattered clouds.16 mph71%30.15 "HgN/A
11:50 AM43 °FScattered clouds.16 mph76%30.15 "HgN/A
11:20 AM43 °FScattered clouds.17 mph76%30.15 "HgN/A
10:50 AM41 °FPassing clouds.14 mph76%30.12 "HgN/A
10:20 AM41 °FPassing clouds.14 mph81%30.12 "HgN/A
9:50 AM39 °FPassing clouds.15 mph87%30.12 "HgN/A
9:20 AM39 °FSunny.14 mph81%30.12 "Hg10 mi
8:50 AM37 °FSunny.10 mph87%30.12 "Hg10 mi
8:20 AM36 °FSunny.10 mph87%30.12 "Hg10 mi
7:50 AM36 °FSunny.12 mph87%30.12 "Hg10 mi
7:20 AM34 °FSunny.9 mph87%30.09 "Hg10 mi
6:50 AM34 °FClear.12 mph93%30.09 "Hg10 mi
6:20 AM34 °FClear.12 mph87%30.09 "Hg10 mi
5:50 AM34 °FClear.12 mph93%30.09 "Hg10 mi
5:20 AM34 °FClear.14 mph87%30.09 "Hg10 mi
Weather by CustomWeather, © 2015

See weather overviewHow to use our weather pages